{"data":{"norad_id":41790,"intl_designator":"2016-059H","name":"SCATSAT 1","alt_names":[],"object_type":"PAYLOAD","status":"ACTIVE","operator":null,"country":"IND","launch_date":"2016-09-26","launch_site_code":"SRILR","launch_vehicle":null,"mission":null,"orbit_class":"UNKNOWN","rcs_meters":1.7214,"size_class":null,"mass_kg":null,"dimensions":null,"purposes":["earth_obs"],"wikipedia_slug":null,"has_3d_model":false,"image_url":null,"decayed_at":null,"tle_current":{"epoch":"2026-09-19T09:58:39.820224Z","epoch_age_seconds":108113,"freshness":"FRESH","line1":"1 41790U 16059H   26262.41573866  .00000619  00000+0  88063-4 0  9994","line2":"2 41790  98.1098 327.1164 0053259 305.0675  54.5547 14.79709404115521","mean_motion":14.79709404,"eccentricity":0.0053259,"inclination_deg":98.1098,"raan_deg":327.1164,"arg_perigee_deg":305.0675,"mean_anomaly_deg":54.5547,"bstar":8.8063e-5,"rev_number":11552,"period_min":97.316405241958,"perigee_km":592.91563187244,"apogee_km":667.56747856693,"semimajor_km":7008.3785552197,"source":"CELESTRAK","updated_at":"2026-09-20T09:00:33.968937Z"}}}